Other Public Products
Issued by NWS Grand Forks, ND

Home | Current Version | Previous Version | Text Only | Print | Product List | Glossary Off
Versions: 1 2 3 4 5 6 7 8 9 10 11 12 13 14 15 16 17 18 19 20 21 22 23 24 25 26 27 28 29 30 31 32 33 34 35 36 37 38 39 40 41 42 43 44 45 46 47 48 49 50

000
FPUS83 KFGF 192010
OPUFGF
PRAIRIE TO PINES WEATHER ROUNDUP
NATIONAL WEATHER SERVICE EASTERN NORTH DAKOTA/GRAND FORKS ND
300 PM CDT SAT MAY 19 2018

 **SATELLITE DATA USED TO AUGMENT SKY COVER AT AUTOMATED STATIONS**
 *****  WEATHER ACROSS EASTERN NORTH DAKOTA  *****

CITY           SKY/WX    TMP DP  RH WIND       PRES   REMARKS
GRAND FORKS    FAIR      65  37  35 NE15G28   30.19S
GRND FORKS AFB FAIR      64  40  40 NE13G23   30.20S
GRND FORKS NWS   N/A     65  39  37 NE12      30.16F
BUXTON         NOT AVBL
DEVILS LAKE    FAIR      61  34  36 NE14G24   30.24F
FARGO          FAIR      65  33  30 NE24G36   30.13F
WAHPETON ARPT  FAIR      66  28  24 N22G33    30.10F
$$

 *****  WEATHER ACROSS CENTRAL AND WESTERN NORTH DAKOTA  *****

CITY           SKY/WX    TMP DP  RH WIND       PRES   REMARKS
JAMESTOWN      FAIR      61  40  45 NE25G33   30.19F
BISMARCK       FAIR      64  30  27 NE16G28   30.23F
MINOT          FAIR      67  26  21 N10       30.25F
MINOT AFB      FAIR      65  26  23 NW9       30.24F
GARRISON         N/A     63  27  25 E12G20    30.25F
WILLISTON      FAIR      65  27  23 VRB5      30.28F
DICKINSON      FAIR      61  30  31 E12G24    30.25F
HETTINGER      FAIR      60  32  34 NE15G25   30.25F
$$

 *****  OTHER OBSERVATIONS NORTHEAST NORTH DAKOTA  *****

CITY           SKY/WX    TMP DP  RH WIND       PRES   REMARKS
WALHALLA       FAIR      64  36  34 NE14G22   30.22
LANGDON        FAIR      64  34  32 NE18      30.23
CAVALIER         N/A     63  37  39 N15       30.21
GRAFTON        FAIR      63  37  39 NE12G24   30.22
CANDO          FAIR      64  34  32 N12       30.25
FORT TOTTEN      N/A     64  34  33 N6        29.95
ROLLA          FAIR      63  28  27 VRB7G21   30.24
RUGBY          NOT AVBL
 ***** THE ABOVE OBSERVATIONS ARE NON NWS ARE NOT QUALITY
        CONTROLLED AND MAY MIS-REPORT RAIN FOR SNOW...
$$

 *****  OTHER OBSERVATIONS SOUTHEAST NORTH DAKOTA *****

CITY           SKY/WX    TMP DP  RH WIND       PRES   REMARKS
COOPERSTOWN    FAIR      61  39  44 NE18G28   30.21S
VALLEY CITY    FAIR      63  36  36 NE24G35   30.19
OAKES            N/A     63  36  36 NE26G43   30.14
GWINNER          N/A     64  34  32 NE29      30.12
BUFFALO        NOT AVBL
WYNDMERE       NOT AVBL
 ***** THE ABOVE OBSERVATIONS ARE NON NWS ARE NOT QUALITY
       CONTROLLED AND MAY MIS-REPORT RAIN FOR SNOW...
$$

  *****  WEATHER ACROSS NORTHERN MINNESOTA  *****

CITY           SKY/WX    TMP DP  RH WIND       PRES   REMARKS
FLAG ISLAND    FAIR      57  32  38 N12       30.18F
WARROAD        FAIR      55  43  62 E12       30.20S
ROSEAU         FAIR      63  39  42 NE16      30.17F
HALLOCK        FAIR      66  28  24 N17       30.19S
THF RVR FALLS  FAIR      62  32  32 N22G28    30.18F
HALSTAD        NOT AVBL
FOSSTON        FAIR      63  34  34 NE20G29   30.15S
BAUDETTE       FAIR      60  36  40 N18G25    30.17S
WASKISH        PTSUNNY   61  34  36 N16G23    30.15S
CROOKSTON      FAIR      63  34  34 NE16G25   30.19R
$$
  *****  WEATHER ACROSS CENTRAL AND WEST MINNESOTA  *****

CITY           SKY/WX    TMP DP  RH WIND       PRES   REMARKS
BEMIDJI        FAIR      62  33  33 NE20G28   30.14S
PARK RAPIDS    FAIR      62  33  33 NE22G30   30.10S
WADENA         FAIR      63  36  36 NE17G24   30.09R
DETROIT LAKES  FAIR      63  32  31 N17G26    30.13R
MOORHEAD       FAIR      64  28  25 NE25G35   30.14S
FERGUS FALLS   FAIR      64  34  32 NE21G26   30.05S
ELBOW LAKE     FAIR      62  38  41 NE22G29   30.06F
MORRIS MN      FAIR      66  39  37 N21G35    30.04S
STAPLES        FAIR      59  37  44 NE14G23   30.09R
WHEATON        FAIR      66  28  24 N22       30.08S
$$
  *****  WEATHER ELSEWHERE ACROSS MINNESOTA  *****

CITY           SKY/WX    TMP DP  RH WIND       PRES   REMARKS
DULUTH         CLOUDY    54  42  64 NE16      30.08R
INTRNTL FALLS  FAIR      57  36  45 N17G24    30.15F
ELY            CLOUDY    48  37  66 NE7       30.12R
CLOQUET        CLOUDY    54  39  58 N9        30.08R
BRAINERD       FAIR      61  40  45 N16G26    30.09R
HIBBING        PTSUNNY   53  40  61 N15       30.11R
ALEXANDRIA     FAIR      67  38  34 NE24G32   30.06S
SAINT CLOUD    CLOUDY    56  44  64 N15G25    30.04R
MINNEAPOLIS    CLOUDY    59  50  72 N23       29.98R
$$

  *****  WEATHER ACROSS SOUTH DAKOTA  *****

CITY           SKY/WX    TMP DP  RH WIND       PRES   REMARKS
SIOUX FALLS    CLOUDY    56  48  74 N10       30.02R
BROOKINGS      CLOUDY    56  47  71 N18G24    30.03F
WATERTOWN      FAIR      63  43  48 NE21G41   30.04S
HURON          FAIR      66  43  43 NE21G33   30.05S
SISSETON         N/A     68  33  27 NE26G36   30.06F
ABERDEEN       FAIR      65  33  30 NE22G38   30.10F
MITCHELL       CLOUDY    59  49  69 NE16      30.06R
PIERRE         FAIR      63  37  38 N23G33    30.12S
MOBRIDGE       FAIR      64  40  41 NE21G33   30.16F
RAPID CITY     FAIR      51  38  60 N15       30.23F
$$

  *****  SOME WEATHER IN NEARBY STATES *****

CITY           SKY/WX    TMP DP  RH WIND       PRES   REMARKS
GLASGOW MT     FAIR      62  33  33 SE18      30.27F
GREAT FALLS MT CLOUDY    54  41  61 CALM      30.18S
CHEYENNE WY    LGT RAIN  40  38  93 N13       30.19S
SCOTTSBLUFF NE RAIN      44  32  62 N18       30.16R
OMAHA NE       CLOUDY    63  54  72 N13       29.94F
DES MOINES IA  TSTM      67  65  93 CALM      29.87R FOG
DAVENPORT IA   FAIR      80  61  52 VRB6      29.89S
CHICAGO IL     CLOUDY    68  59  73 W8        29.88S
EAU CLAIRE WI  CLOUDY    68  57  68 N12       29.90R
LA CROSSE WI   CLOUDY    76  61  59 NW9       29.86S
$$

  *****  SOME NATIONAL WEATHER *****

CITY           SKY/WX    TMP DP  RH WIND       PRES   REMARKS
LA GUARDIA NY  LGT RAIN  55  53  93 NE9       30.17F FOG
RALEIGH NC     CLOUDY    73  72  96 S10       30.10F
ATLANTA GA     FAIR      84  67  56 SW8       30.02F
NEW ORLEANS LA FAIR      89  73  59 S9        29.98F HX  97
OKLAHOMA CITY  FAIR      88  58  36 SW20G25   29.82F
ALBUQUERQUE NM FAIR      79  10   7 W7        29.97F
SALT LAKE CITY PTSUNNY   73  42  32 NW5       29.97F
LOS ANGELES CA CLOUDY    65  55  70 W9        29.94S
BOISE ID       FAIR      75  46  35 NE5       29.93F
SEATTLE WA     PTSUNNY   64  53  67 W5        30.00F
$$

*** WEATHER ACROSS MANITOBA...SASKATCHEWAN AND ONTARIO ***
                ***ONTARIO***

CITY           SKY/WX    TMP DP  RH WIND       PRES   REMARKS
GERALDTON      CLOUDY    39  37  93 N8        30.10R
THUNDER BAY    PTSUNNY   52  37  58 N18G29    30.10R
SIOUX LOOKOUT  MOSUNNY   55  32  41 VRB9      30.17F
TORONTO        CLOUDY    59  57  94 E5        29.88F
BIG TROUT LK   MOSUNNY   57  28  33 S8        30.05F
PICKLE LAKE    PTSUNNY   52  32  46 VRB2      30.16F
DRYDEN         SUNNY     57  34  41 NE13G23   30.16F
KENORA         MOSUNNY   59  32  36 NE9       30.18F
$$
                *** MANITOBA***

CITY           SKY/WX    TMP DP  RH WIND       PRES   REMARKS
BRANDON        MOSUNNY   70  27  19 NE8G18    30.21F
DAUPHIN        SUNNY     68  27  21 NE9G24    30.21F
ISLAND LAKE    MOSUNNY   61  25  25 NW13G18   30.12F
PILOT MOUND      N/A     64  25  22 N9G17       N/A
THE PAS        SUNNY     68  25  19 W16G25    30.16F
THOMPSON       PTSUNNY   66  23  19 W18G25    30.02F
WINNIPEG       SUNNY     68  32  26 N14G22    30.18F
LYNN LAKE      PTSUNNY   64  32  29 W8        30.00F
CHURCHILL      LGT RAIN  39  37  93 NW9       29.87S
GILLAM         CLOUDY    61  25  25 W24G32    29.96F
$$
                ***SASKATCHEWAN***

CITY           SKY/WX    TMP DP  RH WIND       PRES   REMARKS
ESTEVAN        MOSUNNY   68  27  21 VRB6G24   30.26F
KINDERSLEY     SUNNY     68  21  17 S10G23    30.20F
LLOYDMINSTER   MOSUNNY   68  27  21 S23G29    30.17F
PRINCE ALBERT  PTSUNNY   72  30  21 SW12      30.20F
REGINA         MOSUNNY   68  27  21 E5        30.26F
YORKTON        SUNNY     68  28  22 NW8G17    30.22F
N. BATTLEFORD  SUNNY     70  30  23 SW15G22   30.22F



USA.gov is the U.S. government's official web portal to all federal, state and local government web resources and services.